Theta_e
321 323 323 323 323 323 323 324 324 323 323 323 323 324 325 326 325 325 325 325 325 324 323 323 322 322 323 324 324 322 322 320 320 321 323 326 328 332 331 332 337 324 327 339
323 323 321 322 322 323 323 324 324 323 323 323 323 323 323 326 326 325 325 325 324 324 323 322 321 321 322 323 324 324 324 321 322 325 326 325 324 325 329 331 334 340 329 322
322 321 321 322 322 323 323 324 324 323 323 324 324 324 326 326 326 325 325 324 323 323 322 321 320 320 321 321 323 324 325 324 324 324 325 327 327 325 325 325 327 328 335 337
320 320 321 323 322 323 324 322 322 323 324 324 324 323 325 328 328 327 325 324 323 321 321 320 320 320 320 320 321 323 324 324 324 324 325 326 327 327 327 327 327 329 332 335
320 320 321 321 320 321 323 322 323 323 323 323 323 324 327 326 327 328 326 324 322 320 320 319 319 319 319 319 319 321 323 324 324 323 324 325 326 327 327 328 328 328 325 328
320 318 319 319 318 319 320 322 323 323 322 327 326 325 326 327 326 326 325 323 321 320 319 318 318 318 318 318 319 321 323 324 324 323 321 322 324 325 325 325 327 328 328 328
319 319 318 318 321 321 322 324 327 325 326 324 325 325 326 326 326 325 324 322 320 319 319 318 318 318 318 318 319 321 321 322 322 322 320 320 320 323 324 325 325 327 328 328
319 320 318 318 321 323 324 326 335 332 328 326 325 327 329 324 325 324 322 320 320 319 318 318 318 318 318 318 317 320 321 321 321 320 320 319 319 320 321 323 324 326 327 327
321 320 318 317 321 324 326 326 325 331 328 330 325 324 324 324 325 323 322 321 320 318 318 318 317 318 318 317 316 318 319 319 320 319 319 318 316 319 320 321 322 322 322 326
322 323 319 318 321 322 324 323 328 328 332 329 324 323 325 324 324 324 322 321 319 318 318 318 318 318 318 317 316 317 318 317 316 316 315 314 316 317 318 318 319 320 323 323
320 321 321 318 321 323 324 324 324 325 326 331 330 325 324 323 324 324 321 319 319 318 318 318 318 318 318 317 316 316 316 315 313 313 312 313 314 316 316 317 318 319 319 321
321 321 320 318 318 320 322 323 323 326 327 328 328 328 324 324 323 322 320 319 318 318 317 317 318 318 318 317 316 315 314 313 312 310 309 312 312 313 314 315 318 319 319 320
320 321 319 320 322 321 322 323 323 324 325 327 330 329 323 323 321 320 319 319 318 317 317 317 318 319 318 317 315 314 312 311 310 308 308 310 312 313 315 315 316 318 320 321
317 320 320 328 320 320 321 321 321 323 326 327 327 326 324 322 322 320 320 318 317 317 317 317 318 319 318 316 314 312 310 309 307 307 308 309 312 313 316 318 319 319 320 322
320 321 320 320 320 320 321 321 321 323 324 326 323 324 323 323 322 320 319 317 317 317 317 318 318 318 317 314 311 310 308 307 306 306 307 308 310 315 319 320 321 322 321 322
321 321 320 320 319 320 320 321 322 322 323 322 322 323 321 320 319 319 318 318 317 317 317 318 319 318 315 312 310 307 306 305 305 305 307 309 312 316 318 320 327 326 325 326
321 320 321 319 319 322 323 322 323 322 322 322 323 322 321 320 319 318 318 318 316 317 318 318 318 316 312 309 307 305 305 305 304 305 306 308 311 315 317 321 325 326 327 329
321 322 321 320 321 324 323 323 322 323 322 322 321 321 320 319 318 317 317 315 316 318 319 319 316 313 310 307 305 304 304 304 304 304 305 307 310 313 315 318 321 324 324 324
320 322 321 322 322 322 321 322 323 323 322 321 321 320 319 318 317 317 316 316 317 319 319 317 314 312 308 305 304 303 303 302 302 303 305 306 309 312 314 318 318 321 323 324
322 321 322 322 325 330 322 322 318 321 323 320 320 320 319 317 318 318 316 316 317 319 317 315 312 310 307 304 303 302 301 301 301 302 304 305 307 310 312 311 315 318 322 321
324 324 324 324 324 323 324 319 318 323 323 319 318 317 316 318 317 317 316 317 317 318 316 312 310 308 303 302 301 301 300 300 300 302 303 305 305 307 308 309 309 309 312 313
322 323 323 323 323 324 319 318 321 319 317 316 316 316 317 317 317 316 316 316 316 317 314 310 309 305 302 301 300 299 299 300 300 300 301 303 302 304 304 306 304 303 305 307
320 320 322 322 323 320 317 316 314 314 315 315 316 316 317 316 315 316 315 315 315 315 312 309 306 303 301 300 299 299 298 299 299 299 300 300 301 301 301 302 301 301 301 302
317 316 317 317 316 315 315 314 314 313 314 314 314 315 315 315 315 315 313 313 314 314 310 307 303 301 300 300 299 298 298 298 298 298 298 298 299 299 299 300 299 300 298 297
313 314 314 315 314 313 312 312 313 313 313 313 313 315 314 314 314 313 313 313 315 313 309 306 302 300 299 299 298 298 297 298 297 297 297 297 298 299 299 299 299 300 299 298
312 313 314 314 313 314 312 313 313 312 313 313 313 314 314 314 314 312 311 313 314 311 307 304 302 301 299 299 298 297 297 298 297 297 297 297 298 300 300 301 300 300 300 300
Wind_Speed
1 3 7 7 5 6 5 5 5 1 3 7 6 8 6 7 7 5 2 4 7 10 12 14 16 16 18 18 19 21 21 21 22 20 19 17 18 19 22 26 28 34 32 27
7 6 9 5 3 4 6 6 4 5 1 8 10 11 7 9 6 3 1 5 9 11 14 16 18 19 19 19 18 20 20 22 21 18 18 21 23 24 22 24 26 26 36 38
4 8 6 2 4 5 3 6 5 9 9 15 8 16 7 9 8 4 2 5 9 13 17 18 20 21 21 21 20 19 19 20 19 20 19 18 20 23 24 26 29 29 30 33
3 3 4 3 4 6 6 1 7 10 10 9 5 8 9 11 11 8 2 6 10 15 18 20 22 23 23 23 22 21 20 19 18 18 18 18 20 21 20 22 22 26 24 26
6 1 3 1 5 5 5 8 9 10 12 10 11 5 8 4 8 8 2 8 14 18 20 22 23 24 24 25 24 22 21 20 19 19 18 18 19 20 20 20 22 24 28 31
5 2 2 7 6 4 8 9 12 8 7 6 5 5 7 4 5 2 4 12 18 21 21 23 23 24 25 25 26 23 22 20 20 20 21 20 22 23 24 22 22 23 23 25
5 3 2 6 7 5 7 6 3 5 5 3 4 7 6 5 3 3 8 15 20 22 23 24 24 25 26 28 27 23 22 23 21 22 22 23 24 26 28 30 24 23 24 25
3 6 1 5 4 5 3 6 2 3 4 9 4 5 6 5 2 4 12 18 21 23 24 23 24 25 26 28 28 24 23 25 25 25 25 26 26 25 28 27 26 25 26 26
3 4 2 2 3 5 4 1 4 1 3 5 1 4 6 5 2 7 16 20 22 23 24 24 24 25 27 29 28 26 26 26 26 26 28 30 30 27 27 28 27 32 28 26
3 4 3 2 5 3 6 4 4 3 3 5 2 4 5 4 5 13 17 21 24 25 26 26 25 26 27 28 28 27 26 27 29 26 29 30 30 31 31 31 33 34 34 30
1 3 7 5 7 3 7 5 0 3 2 3 4 3 6 6 8 15 17 23 25 27 28 27 27 27 29 30 30 29 28 30 30 30 32 31 32 32 34 35 36 35 33 32
4 4 6 2 2 3 5 2 2 2 3 4 5 7 3 5 12 15 19 24 25 26 28 27 27 30 32 33 33 31 32 34 32 34 35 33 34 31 32 34 36 35 32 32
4 3 6 8 6 7 8 8 6 5 5 11 4 5 2 11 14 17 21 25 26 26 28 29 30 33 35 35 36 34 36 33 34 34 34 36 35 34 34 34 34 32 29 29
4 6 8 5 8 5 5 8 9 9 8 11 10 17 13 13 15 20 22 25 27 26 29 31 32 34 35 36 36 37 35 33 37 37 35 34 33 32 32 30 30 30 27 25
6 7 10 11 10 10 11 13 12 13 14 13 14 15 15 13 14 20 22 25 27 28 30 32 33 35 36 36 34 34 33 39 38 36 35 33 32 28 27 29 25 24 23 23
7 6 5 12 12 13 16 15 16 14 14 12 12 15 9 16 19 21 25 25 27 30 32 33 33 33 34 33 33 35 39 38 36 35 33 31 27 25 25 27 14 11 11 14
7 6 5 11 2 8 12 16 16 9 11 10 11 13 12 13 17 21 22 22 30 29 31 31 31 31 32 31 32 35 35 35 33 32 30 28 24 22 19 13 7 9 13 17
9 9 7 7 5 12 3 3 1 7 10 9 11 10 12 15 18 23 16 26 28 29 28 27 29 31 29 29 34 33 33 32 31 30 28 26 22 17 9 5 4 8 10 14
14 11 7 6 9 12 10 11 6 6 9 8 7 8 15 19 21 14 24 27 27 26 24 24 27 29 29 29 33 31 32 30 29 29 25 24 17 11 2 6 11 17 19 15
10 14 10 7 9 6 3 4 2 4 11 5 6 11 17 21 13 13 27 27 26 23 21 24 27 27 26 33 32 30 29 28 26 26 17 18 11 5 5 14 19 22 21 23
6 8 14 10 8 8 7 1 3 9 4 9 12 15 17 12 17 23 25 25 26 21 22 24 25 25 26 30 32 28 26 26 23 16 13 12 8 7 10 16 21 24 26 28
8 6 7 9 9 9 3 5 9 9 12 14 16 16 16 16 18 21 24 25 25 22 23 25 25 24 26 30 30 25 24 22 16 10 9 9 10 12 14 19 25 29 32 35
5 5 5 4 2 5 3 4 7 7 10 12 13 13 14 15 17 20 22 24 22 21 22 23 23 23 27 30 25 22 21 17 12 10 10 14 16 20 24 28 34 39 41 45
4 3 5 4 6 5 3 8 5 5 8 12 12 12 12 14 17 19 21 22 21 20 21 22 22 23 28 28 22 17 16 11 9 12 14 18 23 29 34 37 41 45 44 46
4 4 7 10 13 15 18 11 6 10 14 16 15 12 11 14 16 18 21 20 19 18 19 20 21 22 27 26 20 16 12 9 15 18 22 26 32 36 40 42 44 46 45 45
11 9 10 9 5 5 13 8 12 18 19 19 17 12 9 13 15 17 18 17 16 16 18 18 20 22 24 22 19 17 10 13 22 28 33 36 41 42 48 50 50 45 44 42
Wind_Direction
74 285 11 348 341 315 290 280 281 337 80 296 312 293 201 196 208 171 125 48 27 17 3 356 352 347 340 335 332 328 322 316 306 297 281 276 268 261 257 256 260 257 249 243
215 51 351 301 302 290 248 266 260 282 78 301 305 295 288 180 192 173 31 18 6 358 355 351 348 344 339 331 326 325 323 318 312 302 287 278 267 260 257 250 244 254 259 254
23 24 349 197 183 243 223 295 326 310 312 267 273 275 167 181 181 183 29 0 355 349 342 341 341 339 336 332 326 320 319 317 313 305 297 291 284 281 275 267 262 259 251 254
44 54 359 77 92 307 279 65 289 287 295 305 12 292 193 168 204 211 289 343 346 343 337 334 333 333 333 330 325 319 314 312 312 304 297 288 281 277 272 267 262 251 251 255
79 78 7 29 6 327 3 316 289 294 289 302 252 251 127 153 202 200 277 335 340 336 334 331 329 329 329 328 324 318 312 308 307 303 298 287 281 277 276 274 272 268 259 251
99 116 4 2 321 293 306 276 262 269 262 250 91 290 119 109 47 125 334 338 336 332 330 331 329 328 328 328 325 318 314 308 306 304 301 293 284 282 281 277 273 271 268 263
180 126 147 343 299 180 293 295 315 233 204 320 128 273 52 77 114 16 338 327 337 334 332 332 331 332 330 331 327 320 315 310 308 302 304 300 289 277 274 278 279 275 270 265
299 173 351 9 355 339 7 337 99 264 327 324 239 235 104 59 102 295 327 338 335 336 335 332 331 331 331 330 328 321 317 310 309 308 303 297 291 286 277 272 271 269 268 267
265 158 127 16 313 282 100 35 13 240 244 266 174 156 159 118 186 333 336 335 336 337 335 334 330 330 331 330 327 322 317 311 306 301 302 301 295 287 279 273 273 278 271 268
85 257 186 84 219 101 322 106 214 119 293 295 286 311 278 349 346 348 337 334 335 335 335 335 330 329 329 330 328 321 317 311 309 301 301 298 294 292 286 282 271 266 270 264
349 284 144 224 209 209 176 183 246 290 298 288 302 306 63 341 347 337 328 338 335 336 335 331 329 331 330 327 328 322 320 314 310 306 303 297 293 289 288 285 282 278 268 264
78 302 272 315 119 269 267 237 255 251 236 211 272 282 96 342 324 333 333 336 336 334 332 332 329 331 331 329 327 323 318 316 313 310 308 302 299 294 287 284 282 276 268 262
150 202 273 178 182 189 239 217 245 273 272 264 247 262 355 326 321 338 337 335 331 333 336 333 333 332 331 328 326 323 320 316 315 313 311 308 306 303 298 292 285 271 265 259
233 244 240 254 333 334 223 239 237 248 273 263 265 270 299 323 341 338 332 331 333 333 336 336 333 330 329 327 324 323 321 320 322 322 321 317 314 310 304 297 286 267 257 248
221 246 237 256 269 261 261 264 254 255 251 269 294 308 312 339 340 321 331 333 333 334 336 334 332 330 328 326 324 325 324 330 331 328 328 322 313 311 310 308 294 269 257 244
205 251 264 263 251 246 262 251 253 266 257 265 273 275 350 335 327 332 332 330 328 332 331 330 329 327 327 325 326 327 332 334 335 331 326 325 322 322 318 320 297 263 254 237
220 256 248 272 238 259 259 254 247 240 239 270 289 330 317 330 335 333 325 330 336 330 327 328 329 328 326 328 326 330 335 335 333 332 335 334 331 330 323 304 253 213 204 205
228 238 250 274 253 253 57 103 223 268 289 283 303 311 326 330 333 313 341 344 330 324 325 327 329 330 329 330 332 336 339 338 340 342 342 342 339 331 313 298 211 193 173 154
226 232 249 242 239 266 264 218 251 247 293 321 303 319 321 328 317 310 357 340 332 327 325 326 331 331 330 331 339 339 340 342 345 347 348 344 344 332 335 112 120 126 132 133
217 226 229 240 257 258 297 127 328 287 268 67 338 324 323 324 317 345 337 338 334 329 330 332 335 336 335 338 342 345 345 347 350 350 351 345 351 356 109 120 123 131 139 132
167 195 218 230 244 273 86 93 247 247 21 339 335 330 326 322 324 321 332 336 332 330 333 336 342 339 339 341 347 352 349 355 351 353 352 357 25 68 106 123 124 123 127 128
211 212 206 231 239 255 108 191 258 358 329 328 320 315 319 319 322 328 335 337 334 334 338 343 343 343 344 349 352 357 356 352 355 13 29 46 69 90 113 120 117 116 119 120
240 245 312 231 46 114 75 354 311 321 317 325 318 319 317 321 331 334 339 340 336 337 339 345 345 349 351 355 1 5 357 356 358 45 61 89 101 108 114 116 116 116 116 117
217 206 244 281 229 267 255 274 264 300 317 319 317 316 322 331 336 341 344 342 338 340 343 346 350 354 353 0 8 15 6 12 58 81 96 104 111 113 115 117 115 116 107 107
294 164 253 268 270 274 269 272 232 293 307 308 305 305 319 331 339 344 345 341 340 341 346 350 356 358 358 4 16 21 19 52 90 96 104 109 113 114 114 113 114 114 112 111
215 244 251 257 323 288 291 270 288 304 307 303 296 288 312 334 340 344 342 338 338 343 350 355 3 4 5 14 27 31 47 97 106 107 106 109 112 113 111 110 107 105 106 105